Year,Month,Day,Hour,Minute,Value (Times are PST for temperature in C)
2011,10,19,00,00,9.30
2011,10,19,00,01,9.30
2011,10,19,00,02,9.40
2011,10,19,00,03,9.40
2011,10,19,00,04,9.40
2011,10,19,00,05,9.40
2011,10,19,00,06,9.40
2011,10,19,00,07,9.40
2011,10,19,00,08,9.40
2011,10,19,00,09,9.40
2011,10,19,00,10,9.40
2011,10,19,00,11,9.30
2011,10,19,00,12,9.30
2011,10,19,00,13,9.30
2011,10,19,00,14,9.30
2011,10,19,00,15,9.30
2011,10,19,00,16,9.30
2011,10,19,00,17,9.30
2011,10,19,00,18,9.30
2011,10,19,00,19,9.30
2011,10,19,00,20,9.30
2011,10,19,00,21,9.20
2011,10,19,00,22,9.20
2011,10,19,00,23,9.20
2011,10,19,00,24,9.20
2011,10,19,00,25,9.20
2011,10,19,00,26,9.20
2011,10,19,00,27,9.20
2011,10,19,00,28,9.10
2011,10,19,00,29,9.10
2011,10,19,00,30,9.10
2011,10,19,00,31,9.10
2011,10,19,00,32,9.10
2011,10,19,00,33,9.20
2011,10,19,00,34,9.20
2011,10,19,00,35,9.20
2011,10,19,00,36,9.10
2011,10,19,00,37,9.10
2011,10,19,00,38,9.10
2011,10,19,00,39,9.10
2011,10,19,00,40,9.10
2011,10,19,00,41,9.10
2011,10,19,00,42,9.00
2011,10,19,00,43,9.00
2011,10,19,00,44,9.00
2011,10,19,00,45,9.00
2011,10,19,00,46,9.00
2011,10,19,00,47,9.00
2011,10,19,00,48,9.00
2011,10,19,00,49,9.00
2011,10,19,00,50,9.00
2011,10,19,00,51,9.00
2011,10,19,00,52,9.00
2011,10,19,00,53,9.00
2011,10,19,00,54,9.00
2011,10,19,00,55,9.00
2011,10,19,00,56,8.90
2011,10,19,00,57,8.90
2011,10,19,00,58,8.90
2011,10,19,00,59,8.90
2011,10,19,01,00,8.90
2011,10,19,01,01,8.90
2011,10,19,01,02,8.90
2011,10,19,01,03,8.90
2011,10,19,01,04,8.90
2011,10,19,01,05,8.90
2011,10,19,01,06,8.90
2011,10,19,01,07,8.90
2011,10,19,01,08,9.00
2011,10,19,01,09,9.00
2011,10,19,01,10,9.00
2011,10,19,01,11,9.00
2011,10,19,01,12,8.90
2011,10,19,01,13,8.90
2011,10,19,01,14,8.90
2011,10,19,01,15,8.90
2011,10,19,01,16,8.90
2011,10,19,01,17,8.80
2011,10,19,01,18,8.80
2011,10,19,01,19,8.80
2011,10,19,01,20,8.80
2011,10,19,01,21,8.80
2011,10,19,01,22,8.80
2011,10,19,01,23,8.80
2011,10,19,01,24,8.80
2011,10,19,01,25,8.80
2011,10,19,01,26,8.70
2011,10,19,01,27,8.70
2011,10,19,01,28,8.70
2011,10,19,01,29,8.70
2011,10,19,01,30,8.70
2011,10,19,01,31,8.70
2011,10,19,01,32,8.70
2011,10,19,01,33,8.70
2011,10,19,01,34,8.70
2011,10,19,01,35,8.70
2011,10,19,01,36,8.70
2011,10,19,01,37,8.80
2011,10,19,01,38,8.80
2011,10,19,01,39,8.80
2011,10,19,01,40,8.80
2011,10,19,01,41,8.70
2011,10,19,01,42,8.70
2011,10,19,01,43,8.70
2011,10,19,01,44,8.70
2011,10,19,01,45,8.70
2011,10,19,01,46,8.70
2011,10,19,01,47,8.70
2011,10,19,01,48,8.70
2011,10,19,01,49,8.70
2011,10,19,01,50,8.70
2011,10,19,01,51,8.60
2011,10,19,01,52,8.60
2011,10,19,01,53,8.60
2011,10,19,01,54,8.60
2011,10,19,01,55,8.60
2011,10,19,01,56,8.60
2011,10,19,01,57,8.60
2011,10,19,01,58,8.60
2011,10,19,01,59,8.60
2011,10,19,02,00,8.60
2011,10,19,02,01,8.60
2011,10,19,02,02,8.60
2011,10,19,02,03,8.60
2011,10,19,02,04,8.60
2011,10,19,02,05,8.50
2011,10,19,02,06,8.50
2011,10,19,02,07,8.50
2011,10,19,02,08,8.50
2011,10,19,02,09,8.50
2011,10,19,02,10,8.50
2011,10,19,02,11,8.60
2011,10,19,02,12,8.60
2011,10,19,02,13,8.60
2011,10,19,02,14,8.60
2011,10,19,02,15,8.60
2011,10,19,02,16,8.60
2011,10,19,02,17,8.60
2011,10,19,02,18,8.70
2011,10,19,02,19,8.70
2011,10,19,02,20,8.70
2011,10,19,02,21,8.70
2011,10,19,02,22,8.70
2011,10,19,02,23,8.70
2011,10,19,02,24,8.70
2011,10,19,02,25,8.60
2011,10,19,02,26,8.70
2011,10,19,02,27,8.70
2011,10,19,02,28,8.70
2011,10,19,02,29,8.70
2011,10,19,02,30,8.70
2011,10,19,02,31,8.70
2011,10,19,02,32,8.70
2011,10,19,02,33,8.70
2011,10,19,02,34,8.70
2011,10,19,02,35,8.70
2011,10,19,02,36,8.70
2011,10,19,02,37,8.70
2011,10,19,02,38,8.70
2011,10,19,02,39,8.70
2011,10,19,02,40,8.70
2011,10,19,02,41,8.70
2011,10,19,02,42,8.70
2011,10,19,02,43,8.60
2011,10,19,02,44,8.60
2011,10,19,02,45,8.60
2011,10,19,02,46,8.60
2011,10,19,02,47,8.60
2011,10,19,02,48,8.60
2011,10,19,02,49,8.60
2011,10,19,02,50,8.60
2011,10,19,02,51,8.60
2011,10,19,02,52,8.60
2011,10,19,02,53,8.60
2011,10,19,02,54,8.60
2011,10,19,02,55,8.60
2011,10,19,02,56,8.60
2011,10,19,02,57,8.60
2011,10,19,02,58,8.60
2011,10,19,02,59,8.60
2011,10,19,03,00,8.60
2011,10,19,03,01,8.60
2011,10,19,03,02,8.60
2011,10,19,03,03,8.60
2011,10,19,03,04,8.70
2011,10,19,03,05,8.70
2011,10,19,03,06,8.70
2011,10,19,03,07,8.70
2011,10,19,03,08,8.70
2011,10,19,03,09,8.70
2011,10,19,03,10,8.60
2011,10,19,03,11,8.60
2011,10,19,03,12,8.70
2011,10,19,03,13,8.70
2011,10,19,03,14,8.70
2011,10,19,03,15,8.70
2011,10,19,03,16,8.70
2011,10,19,03,17,8.70
2011,10,19,03,18,8.70
2011,10,19,03,19,8.70
2011,10,19,03,20,8.70
2011,10,19,03,21,8.70
2011,10,19,03,22,8.70
2011,10,19,03,23,8.70
2011,10,19,03,24,8.70
2011,10,19,03,25,8.70
2011,10,19,03,26,8.70
2011,10,19,03,27,8.70
2011,10,19,03,28,8.60
2011,10,19,03,29,8.60
2011,10,19,03,30,8.60
2011,10,19,03,31,8.60
2011,10,19,03,32,8.60
2011,10,19,03,33,8.60
2011,10,19,03,34,8.50
2011,10,19,03,35,8.60
2011,10,19,03,36,8.50
2011,10,19,03,37,8.50
2011,10,19,03,38,8.50
2011,10,19,03,39,8.50
2011,10,19,03,40,8.40
2011,10,19,03,41,8.40
2011,10,19,03,42,8.40
2011,10,19,03,43,8.40
2011,10,19,03,44,8.40
2011,10,19,03,45,8.40
2011,10,19,03,46,8.40
2011,10,19,03,47,8.30
2011,10,19,03,48,8.30
2011,10,19,03,49,8.30
2011,10,19,03,50,8.30
2011,10,19,03,51,8.30
2011,10,19,03,52,8.30
2011,10,19,03,53,8.30
2011,10,19,03,54,8.20
2011,10,19,03,55,8.20
2011,10,19,03,56,8.20
2011,10,19,03,57,8.20
2011,10,19,03,58,8.20
2011,10,19,03,59,8.10
2011,10,19,04,00,8.10
2011,10,19,04,01,8.10
2011,10,19,04,02,8.10
2011,10,19,04,03,8.10
2011,10,19,04,04,8.10
2011,10,19,04,05,8.10
2011,10,19,04,06,8.10
2011,10,19,04,07,8.10
2011,10,19,04,08,8.10
2011,10,19,04,09,8.10
2011,10,19,04,10,8.10
2011,10,19,04,11,8.10
2011,10,19,04,12,8.10
2011,10,19,04,13,8.00
2011,10,19,04,14,8.00
2011,10,19,04,15,8.00
2011,10,19,04,16,8.00
2011,10,19,04,17,7.90
2011,10,19,04,18,7.90
2011,10,19,04,19,7.90
2011,10,19,04,20,7.90
2011,10,19,04,21,7.90
2011,10,19,04,22,7.80
2011,10,19,04,23,7.80
2011,10,19,04,24,7.80
2011,10,19,04,25,7.80
2011,10,19,04,26,7.80
2011,10,19,04,27,7.80
2011,10,19,04,28,7.70
2011,10,19,04,29,7.70
2011,10,19,04,30,7.70
2011,10,19,04,31,7.80
2011,10,19,04,32,7.80
2011,10,19,04,33,7.80
2011,10,19,04,34,7.80
2011,10,19,04,35,7.80
2011,10,19,04,36,7.80
2011,10,19,04,37,7.80
2011,10,19,04,38,7.80
2011,10,19,04,39,7.80
2011,10,19,04,40,7.80
2011,10,19,04,41,7.70
2011,10,19,04,42,7.70
2011,10,19,04,43,7.70
2011,10,19,04,44,7.70
2011,10,19,04,45,7.70
2011,10,19,04,46,7.70
2011,10,19,04,47,7.70
2011,10,19,04,48,7.70
2011,10,19,04,49,7.70
2011,10,19,04,50,7.70
2011,10,19,04,51,7.70
2011,10,19,04,52,7.60
2011,10,19,04,53,7.60
2011,10,19,04,54,7.60
2011,10,19,04,55,7.50
2011,10,19,04,56,7.50
2011,10,19,04,57,7.40
2011,10,19,04,58,7.40
2011,10,19,04,59,7.40
2011,10,19,05,00,7.40
2011,10,19,05,01,7.30
2011,10,19,05,02,7.30
2011,10,19,05,03,7.30
2011,10,19,05,04,7.30
2011,10,19,05,05,7.30
2011,10,19,05,06,7.30
2011,10,19,05,07,7.30
2011,10,19,05,08,7.30
2011,10,19,05,09,7.30
2011,10,19,05,10,7.30
2011,10,19,05,11,7.30
2011,10,19,05,12,7.30
2011,10,19,05,13,7.30
2011,10,19,05,14,7.30
2011,10,19,05,15,7.30
2011,10,19,05,16,7.30
2011,10,19,05,17,7.30
2011,10,19,05,18,7.30
2011,10,19,05,19,7.40
2011,10,19,05,20,7.40
2011,10,19,05,21,7.40
2011,10,19,05,22,7.40
2011,10,19,05,23,7.40
2011,10,19,05,24,7.40
2011,10,19,05,25,7.40
2011,10,19,05,26,7.50
2011,10,19,05,27,7.50
2011,10,19,05,28,7.50
2011,10,19,05,29,7.50
2011,10,19,05,30,7.50
2011,10,19,05,31,7.40
2011,10,19,05,32,7.40
2011,10,19,05,33,7.40
2011,10,19,05,34,7.40
2011,10,19,05,35,7.40
2011,10,19,05,36,7.40
2011,10,19,05,37,7.30
2011,10,19,05,38,7.30
2011,10,19,05,39,7.20
2011,10,19,05,40,7.20
2011,10,19,05,41,7.20
2011,10,19,05,42,7.20
2011,10,19,05,43,7.20
2011,10,19,05,44,7.20
2011,10,19,05,45,7.10
2011,10,19,05,46,7.10
2011,10,19,05,47,7.10
2011,10,19,05,48,7.00
2011,10,19,05,49,7.00
2011,10,19,05,50,7.00
2011,10,19,05,51,6.90
2011,10,19,05,52,6.90
2011,10,19,05,53,6.90
2011,10,19,05,54,6.90
2011,10,19,05,55,6.90
2011,10,19,05,56,6.90
2011,10,19,05,57,6.90
2011,10,19,05,58,6.90
2011,10,19,05,59,6.90
2011,10,19,06,00,6.90
2011,10,19,06,01,6.90
2011,10,19,06,02,6.90
2011,10,19,06,03,6.90
2011,10,19,06,04,6.90
2011,10,19,06,05,6.90
2011,10,19,06,06,6.80
2011,10,19,06,07,6.80
2011,10,19,06,08,6.80
2011,10,19,06,09,6.80
2011,10,19,06,10,6.80
2011,10,19,06,11,6.80
2011,10,19,06,12,6.80
2011,10,19,06,13,6.80
2011,10,19,06,14,6.80
2011,10,19,06,15,6.80
2011,10,19,06,16,6.80
2011,10,19,06,17,6.80
2011,10,19,06,18,6.80
2011,10,19,06,19,6.80
2011,10,19,06,20,6.80
2011,10,19,06,21,6.80
2011,10,19,06,22,6.80
2011,10,19,06,23,6.80
2011,10,19,06,24,6.80
2011,10,19,06,25,6.80
2011,10,19,06,26,6.80
2011,10,19,06,27,6.80
2011,10,19,06,28,6.80
2011,10,19,06,29,6.80
2011,10,19,06,30,6.80
2011,10,19,06,31,6.80
2011,10,19,06,32,6.80
2011,10,19,06,33,6.80
2011,10,19,06,34,6.80
2011,10,19,06,35,6.80
2011,10,19,06,36,6.70
2011,10,19,06,37,6.70
2011,10,19,06,38,6.70
2011,10,19,06,39,6.70
2011,10,19,06,40,6.70
2011,10,19,06,41,6.70
2011,10,19,06,42,6.70
2011,10,19,06,43,6.70
2011,10,19,06,44,6.70
2011,10,19,06,45,6.70
2011,10,19,06,46,6.70
2011,10,19,06,47,6.60
2011,10,19,06,48,6.70
2011,10,19,06,49,6.60
2011,10,19,06,50,6.60
2011,10,19,06,51,6.60
2011,10,19,06,52,6.60
2011,10,19,06,53,6.60
2011,10,19,06,54,6.60
2011,10,19,06,55,6.60
2011,10,19,06,56,6.60
2011,10,19,06,57,6.60
2011,10,19,06,58,6.60
2011,10,19,06,59,6.70
2011,10,19,07,00,6.70
2011,10,19,07,01,6.70
2011,10,19,07,02,6.60
2011,10,19,07,03,6.60
2011,10,19,07,04,6.60
2011,10,19,07,05,6.60
2011,10,19,07,06,6.60
2011,10,19,07,07,6.60
2011,10,19,07,08,6.60
2011,10,19,07,09,6.60
2011,10,19,07,10,6.50
2011,10,19,07,11,6.60
2011,10,19,07,12,6.50
2011,10,19,07,13,6.60
2011,10,19,07,14,6.50
2011,10,19,07,15,6.60
2011,10,19,07,16,6.60
2011,10,19,07,17,6.50
2011,10,19,07,18,6.50
2011,10,19,07,19,6.50
2011,10,19,07,20,6.50
2011,10,19,07,21,6.40
2011,10,19,07,22,6.40
2011,10,19,07,23,6.40
2011,10,19,07,24,6.30
2011,10,19,07,25,6.30
2011,10,19,07,26,6.30
2011,10,19,07,27,6.40
2011,10,19,07,28,6.30
2011,10,19,07,29,6.30
2011,10,19,07,30,6.30
2011,10,19,07,31,6.30
2011,10,19,07,32,6.30
2011,10,19,07,33,6.30
2011,10,19,07,34,6.30
2011,10,19,07,35,6.30
2011,10,19,07,36,6.30
2011,10,19,07,37,6.30
2011,10,19,07,38,6.30
2011,10,19,07,39,6.30
2011,10,19,07,40,6.30
2011,10,19,07,41,6.30
2011,10,19,07,42,6.30
2011,10,19,07,43,6.30
2011,10,19,07,44,6.30
2011,10,19,07,45,6.30
2011,10,19,07,46,6.30
2011,10,19,07,47,6.30
2011,10,19,07,48,6.30
2011,10,19,07,49,6.30
2011,10,19,07,50,6.30
2011,10,19,07,51,6.30
2011,10,19,07,52,6.30
2011,10,19,07,53,6.30
2011,10,19,07,54,6.20
2011,10,19,07,55,6.20
2011,10,19,07,56,6.20
2011,10,19,07,57,6.20
2011,10,19,07,58,6.30
2011,10,19,07,59,6.30
2011,10,19,08,00,6.30
2011,10,19,08,01,6.30
2011,10,19,08,02,6.30
2011,10,19,08,03,6.30
2011,10,19,08,04,6.40
2011,10,19,08,05,6.40
2011,10,19,08,06,6.50
2011,10,19,08,07,6.50
2011,10,19,08,08,6.50
2011,10,19,08,09,6.60
2011,10,19,08,10,6.60
2011,10,19,08,11,6.60
2011,10,19,08,12,6.70
2011,10,19,08,13,6.70
2011,10,19,08,14,6.70
2011,10,19,08,15,6.70
2011,10,19,08,16,6.70
2011,10,19,08,17,6.70
2011,10,19,08,18,6.70
2011,10,19,08,19,6.70
2011,10,19,08,20,6.70
2011,10,19,08,21,6.80
2011,10,19,08,22,6.80
2011,10,19,08,23,6.80
2011,10,19,08,24,6.80
2011,10,19,08,25,6.80
2011,10,19,08,26,6.80
2011,10,19,08,27,6.80
2011,10,19,08,28,6.80
2011,10,19,08,29,6.90
2011,10,19,08,30,6.90
2011,10,19,08,31,6.90
2011,10,19,08,32,6.90
2011,10,19,08,33,6.90
2011,10,19,08,34,6.90
2011,10,19,08,35,7.00
2011,10,19,08,36,7.00
2011,10,19,08,37,7.00
2011,10,19,08,38,7.00
2011,10,19,08,39,7.10
2011,10,19,08,40,7.10
2011,10,19,08,41,7.10
2011,10,19,08,42,7.20
2011,10,19,08,43,7.20
2011,10,19,08,44,7.20
2011,10,19,08,45,7.20
2011,10,19,08,46,7.30
2011,10,19,08,47,7.30
2011,10,19,08,48,7.30
2011,10,19,08,49,7.40
2011,10,19,08,50,7.40
2011,10,19,08,51,7.50
2011,10,19,08,52,7.60
2011,10,19,08,53,7.60
2011,10,19,08,54,7.70
2011,10,19,08,55,7.70
2011,10,19,08,56,7.70
2011,10,19,08,57,7.80
2011,10,19,08,58,7.80
2011,10,19,08,59,7.90
2011,10,19,09,00,7.90
2011,10,19,09,01,8.00
2011,10,19,09,02,8.10
2011,10,19,09,03,8.20
2011,10,19,09,04,8.20
2011,10,19,09,05,8.30
2011,10,19,09,06,8.40
2011,10,19,09,07,8.40
2011,10,19,09,08,8.50
2011,10,19,09,09,8.60
2011,10,19,09,10,8.70
2011,10,19,09,11,8.80
2011,10,19,09,12,8.80
2011,10,19,09,13,8.90
2011,10,19,09,14,9.00
2011,10,19,09,15,9.00
2011,10,19,09,16,9.10
2011,10,19,09,17,9.30
2011,10,19,09,18,9.40
2011,10,19,09,19,9.50
2011,10,19,09,20,9.50
2011,10,19,09,21,9.60
2011,10,19,09,22,9.60
2011,10,19,09,23,9.70
2011,10,19,09,24,9.60
2011,10,19,09,25,9.60
2011,10,19,09,26,9.60
2011,10,19,09,27,9.70
2011,10,19,09,28,9.70
2011,10,19,09,29,9.80
2011,10,19,09,30,9.80
2011,10,19,09,31,9.90
2011,10,19,09,32,9.90
2011,10,19,09,33,10.00
2011,10,19,09,34,10.00
2011,10,19,09,35,10.00
2011,10,19,09,36,10.10
2011,10,19,09,37,10.10
2011,10,19,09,38,10.20
2011,10,19,09,39,10.20
2011,10,19,09,40,10.30
2011,10,19,09,41,10.40
2011,10,19,09,42,10.50
2011,10,19,09,43,10.60
2011,10,19,09,44,10.60
2011,10,19,09,45,10.70
2011,10,19,09,46,10.70
2011,10,19,09,47,10.70
2011,10,19,09,48,10.70
2011,10,19,09,49,10.60
2011,10,19,09,50,10.60
2011,10,19,09,51,10.70
2011,10,19,09,52,10.70
2011,10,19,09,53,10.70
2011,10,19,09,54,10.80
2011,10,19,09,55,10.70
2011,10,19,09,56,10.70
2011,10,19,09,57,10.70
2011,10,19,09,58,10.70
2011,10,19,09,59,10.70
2011,10,19,10,00,10.80
2011,10,19,10,01,10.80
2011,10,19,10,02,10.80
2011,10,19,10,03,10.80
2011,10,19,10,04,10.80
2011,10,19,10,05,10.80
2011,10,19,10,06,10.80
2011,10,19,10,07,10.90
2011,10,19,10,08,10.90
2011,10,19,10,09,10.90
2011,10,19,10,10,10.90
2011,10,19,10,11,10.90
2011,10,19,10,12,10.90
2011,10,19,10,13,10.90
2011,10,19,10,14,10.90
2011,10,19,10,15,11.00
2011,10,19,10,16,11.10
2011,10,19,10,17,11.10
2011,10,19,10,18,11.20
2011,10,19,10,19,11.20
2011,10,19,10,20,11.10
2011,10,19,10,21,11.10
2011,10,19,10,22,11.10
2011,10,19,10,23,11.10
2011,10,19,10,24,11.10
2011,10,19,10,25,11.10
2011,10,19,10,26,11.10
2011,10,19,10,27,11.10
2011,10,19,10,28,11.10
2011,10,19,10,29,11.10
2011,10,19,10,30,11.10
2011,10,19,10,31,11.10
2011,10,19,10,32,11.10
2011,10,19,10,33,11.10
2011,10,19,10,34,11.10
2011,10,19,10,35,11.10
2011,10,19,10,36,11.10
2011,10,19,10,37,11.10
2011,10,19,10,38,11.20
2011,10,19,10,39,11.20
2011,10,19,10,40,11.20
2011,10,19,10,41,11.20
2011,10,19,10,42,11.20
2011,10,19,10,43,11.20
2011,10,19,10,44,11.20
2011,10,19,10,45,11.20
2011,10,19,10,46,11.20
2011,10,19,10,47,11.20
2011,10,19,10,48,11.20
2011,10,19,10,49,11.20
2011,10,19,10,50,11.20
2011,10,19,10,51,11.20
2011,10,19,10,52,11.20
2011,10,19,10,53,11.30
2011,10,19,10,54,11.30
2011,10,19,10,55,11.30
2011,10,19,10,56,11.30
2011,10,19,10,57,11.30
2011,10,19,10,58,11.30
2011,10,19,10,59,11.40
2011,10,19,11,00,11.40
2011,10,19,11,01,11.40
2011,10,19,11,02,11.40
2011,10,19,11,03,11.40
2011,10,19,11,04,11.40
2011,10,19,11,05,11.40
2011,10,19,11,06,11.30
2011,10,19,11,07,11.10
2011,10,19,11,08,11.00
2011,10,19,11,09,10.90
2011,10,19,11,10,10.80
2011,10,19,11,11,10.80
2011,10,19,11,12,10.80
2011,10,19,11,13,10.80
2011,10,19,11,14,10.80
2011,10,19,11,15,10.80
2011,10,19,11,16,10.80
2011,10,19,11,17,10.70
2011,10,19,11,18,10.70
2011,10,19,11,19,10.70
2011,10,19,11,20,10.70
2011,10,19,11,21,10.80
2011,10,19,11,22,10.80
2011,10,19,11,23,10.70
2011,10,19,11,24,10.80
2011,10,19,11,25,10.80
2011,10,19,11,26,10.80
2011,10,19,11,27,10.80
2011,10,19,11,28,10.90
2011,10,19,11,29,10.90
2011,10,19,11,30,10.90
2011,10,19,11,31,11.00
2011,10,19,11,32,11.00
2011,10,19,11,33,11.10
2011,10,19,11,34,11.10
2011,10,19,11,35,11.20
2011,10,19,11,36,11.20
2011,10,19,11,37,11.20
2011,10,19,11,38,11.30
2011,10,19,11,39,11.30
2011,10,19,11,40,11.40
2011,10,19,11,41,11.50
2011,10,19,11,42,11.50
2011,10,19,11,43,11.60
2011,10,19,11,44,11.70
2011,10,19,11,45,11.70
2011,10,19,11,46,11.70
2011,10,19,11,47,11.80
2011,10,19,11,48,11.80
2011,10,19,11,49,11.90
2011,10,19,11,50,11.90
2011,10,19,11,51,11.90
2011,10,19,11,52,11.90
2011,10,19,11,53,11.90
2011,10,19,11,54,11.80
2011,10,19,11,55,11.70
2011,10,19,11,56,11.70
2011,10,19,11,57,11.60
2011,10,19,11,58,11.60
2011,10,19,11,59,11.50
2011,10,19,12,00,11.40
2011,10,19,12,01,11.40
2011,10,19,12,02,11.40
2011,10,19,12,03,11.40
2011,10,19,12,04,11.30
2011,10,19,12,05,11.30
2011,10,19,12,06,11.30
2011,10,19,12,07,11.30
2011,10,19,12,08,11.30
2011,10,19,12,09,11.30
2011,10,19,12,10,11.30
2011,10,19,12,11,11.30
2011,10,19,12,12,11.30
2011,10,19,12,13,11.30
2011,10,19,12,14,11.30
2011,10,19,12,15,11.30
2011,10,19,12,16,11.30
2011,10,19,12,17,11.20
2011,10,19,12,18,11.20
2011,10,19,12,19,11.20
2011,10,19,12,20,11.20
2011,10,19,12,21,11.20
2011,10,19,12,22,11.20
2011,10,19,12,23,11.20
2011,10,19,12,24,11.20
2011,10,19,12,25,11.20
2011,10,19,12,26,11.20
2011,10,19,12,27,11.10
2011,10,19,12,28,11.10
2011,10,19,12,29,11.10
2011,10,19,12,30,11.10
2011,10,19,12,31,11.10
2011,10,19,12,32,11.00
2011,10,19,12,33,11.00
2011,10,19,12,34,11.00
2011,10,19,12,35,10.90
2011,10,19,12,36,10.90
2011,10,19,12,37,10.80
2011,10,19,12,38,10.80
2011,10,19,12,39,10.80
2011,10,19,12,40,10.80
2011,10,19,12,41,10.80
2011,10,19,12,42,10.70
2011,10,19,12,43,10.70
2011,10,19,12,44,10.70
2011,10,19,12,45,10.70
2011,10,19,12,46,10.60
2011,10,19,12,47,10.60
2011,10,19,12,48,10.60
2011,10,19,12,49,10.60
2011,10,19,12,50,10.60
2011,10,19,12,51,10.60
2011,10,19,12,52,10.70
2011,10,19,12,53,10.70
2011,10,19,12,54,10.70
2011,10,19,12,55,10.70
2011,10,19,12,56,10.70
2011,10,19,12,57,10.70
2011,10,19,12,58,10.70
2011,10,19,12,59,10.70
2011,10,19,13,00,10.70
2011,10,19,13,01,10.70
2011,10,19,13,02,10.70
2011,10,19,13,03,10.70
2011,10,19,13,04,10.70
2011,10,19,13,05,10.70
2011,10,19,13,06,10.70
2011,10,19,13,07,10.70
2011,10,19,13,08,10.70
2011,10,19,13,09,10.80
2011,10,19,13,10,10.80
2011,10,19,13,11,10.80
2011,10,19,13,12,10.80
2011,10,19,13,13,10.80
2011,10,19,13,14,10.80
2011,10,19,13,15,10.90
2011,10,19,13,16,10.90
2011,10,19,13,17,11.00
2011,10,19,13,18,11.00
2011,10,19,13,19,11.10
2011,10,19,13,20,11.10
2011,10,19,13,21,11.20
2011,10,19,13,22,11.20
2011,10,19,13,23,11.30
2011,10,19,13,24,11.30
2011,10,19,13,25,11.40
2011,10,19,13,26,11.40
2011,10,19,13,27,11.60
2011,10,19,13,28,11.70
2011,10,19,13,29,11.80
2011,10,19,13,30,11.90
2011,10,19,13,31,11.90
2011,10,19,13,32,12.00
2011,10,19,13,33,12.00
2011,10,19,13,34,12.10
2011,10,19,13,35,12.10
2011,10,19,13,36,12.20
2011,10,19,13,37,12.30
2011,10,19,13,38,12.40
2011,10,19,13,39,12.40
2011,10,19,13,40,12.50
2011,10,19,13,41,12.50
2011,10,19,13,42,12.60
2011,10,19,13,43,12.60
2011,10,19,13,44,12.70
2011,10,19,13,45,12.70
2011,10,19,13,46,12.80
2011,10,19,13,47,12.90
2011,10,19,13,48,13.10
2011,10,19,13,49,13.30
2011,10,19,13,50,13.40
2011,10,19,13,51,13.50
2011,10,19,13,52,13.70
2011,10,19,13,53,13.80
2011,10,19,13,54,13.90
2011,10,19,13,55,14.10
2011,10,19,13,56,14.20
2011,10,19,13,57,14.40
2011,10,19,13,58,14.50
2011,10,19,13,59,14.60
2011,10,19,14,00,14.80
2011,10,19,14,01,15.00
2011,10,19,14,02,15.00
2011,10,19,14,03,15.00
2011,10,19,14,04,15.20
2011,10,19,14,05,15.30
2011,10,19,14,06,15.50
2011,10,19,14,07,15.60
2011,10,19,14,08,15.70
2011,10,19,14,09,15.80
2011,10,19,14,10,15.80
2011,10,19,14,11,15.90
2011,10,19,14,12,16.00
2011,10,19,14,13,16.10
2011,10,19,14,14,16.20
2011,10,19,14,15,16.30
2011,10,19,14,16,16.30
2011,10,19,14,17,16.40
2011,10,19,14,18,16.40
2011,10,19,14,19,16.40
2011,10,19,14,20,16.50
2011,10,19,14,21,16.50
2011,10,19,14,22,16.60
2011,10,19,14,23,16.60
2011,10,19,14,24,16.60
2011,10,19,14,25,16.70
2011,10,19,14,26,16.70
2011,10,19,14,27,16.70
2011,10,19,14,28,16.70
2011,10,19,14,29,16.70
2011,10,19,14,30,16.70
2011,10,19,14,31,16.70
2011,10,19,14,32,16.70
2011,10,19,14,33,16.70
2011,10,19,14,34,16.70
2011,10,19,14,35,16.80
2011,10,19,14,36,16.80
2011,10,19,14,37,16.70
2011,10,19,14,38,16.70
2011,10,19,14,39,16.70
2011,10,19,14,40,16.70
2011,10,19,14,41,16.70
2011,10,19,14,42,16.60
2011,10,19,14,43,16.60
2011,10,19,14,44,16.60
2011,10,19,14,45,16.60
2011,10,19,14,46,16.60
2011,10,19,14,47,16.70
2011,10,19,14,48,16.60
2011,10,19,14,49,16.60
2011,10,19,14,50,16.60
2011,10,19,14,51,16.60
2011,10,19,14,52,16.50
2011,10,19,14,53,16.40
2011,10,19,14,54,16.40
2011,10,19,14,55,16.30
2011,10,19,14,56,16.30
2011,10,19,14,57,16.30
2011,10,19,14,58,16.20
2011,10,19,14,59,16.10
2011,10,19,15,00,16.00
2011,10,19,15,01,15.90
2011,10,19,15,02,15.80
2011,10,19,15,03,15.70
2011,10,19,15,04,15.60
2011,10,19,15,05,15.60
2011,10,19,15,06,15.50
2011,10,19,15,07,15.50
2011,10,19,15,08,15.40
2011,10,19,15,09,15.30
2011,10,19,15,10,15.30
2011,10,19,15,11,15.20
2011,10,19,15,12,15.10
2011,10,19,15,13,15.10
2011,10,19,15,14,15.00
2011,10,19,15,15,15.00
2011,10,19,15,16,15.00
2011,10,19,15,17,15.00
2011,10,19,15,18,15.00
2011,10,19,15,19,15.00
2011,10,19,15,20,15.00
2011,10,19,15,21,15.00
2011,10,19,15,22,15.00
2011,10,19,15,23,15.00
2011,10,19,15,24,15.00
2011,10,19,15,25,15.00
2011,10,19,15,26,15.00
2011,10,19,15,27,15.00
2011,10,19,15,28,15.00
2011,10,19,15,29,15.00
2011,10,19,15,30,15.00
2011,10,19,15,31,15.00
2011,10,19,15,32,15.00
2011,10,19,15,33,15.00
2011,10,19,15,34,15.00
2011,10,19,15,35,15.00
2011,10,19,15,36,15.00
2011,10,19,15,37,15.00
2011,10,19,15,38,15.10
2011,10,19,15,39,15.10
2011,10,19,15,40,15.20
2011,10,19,15,41,15.20
2011,10,19,15,42,15.20
2011,10,19,15,43,15.20
2011,10,19,15,44,15.30
2011,10,19,15,45,15.30
2011,10,19,15,46,15.30
2011,10,19,15,47,15.30
2011,10,19,15,48,15.30
2011,10,19,15,49,15.30
2011,10,19,15,50,15.30
2011,10,19,15,51,15.30
2011,10,19,15,52,15.30
2011,10,19,15,53,15.30
2011,10,19,15,54,15.20
2011,10,19,15,55,15.20
2011,10,19,15,56,15.20
2011,10,19,15,57,15.20
2011,10,19,15,58,15.20
2011,10,19,15,59,15.20
2011,10,19,16,00,15.20
2011,10,19,16,01,15.20
2011,10,19,16,02,15.20
2011,10,19,16,03,15.20
2011,10,19,16,04,15.20
2011,10,19,16,05,15.20
2011,10,19,16,06,15.20
2011,10,19,16,07,15.20
2011,10,19,16,08,15.30
2011,10,19,16,09,15.30
2011,10,19,16,10,15.30
2011,10,19,16,11,15.40
2011,10,19,16,12,15.40
2011,10,19,16,13,15.50
2011,10,19,16,14,15.60
2011,10,19,16,15,15.60
2011,10,19,16,16,15.60
2011,10,19,16,17,15.70
2011,10,19,16,18,15.70
2011,10,19,16,19,15.70
2011,10,19,16,20,15.70
2011,10,19,16,21,15.60
2011,10,19,16,22,15.60
2011,10,19,16,23,15.60
2011,10,19,16,24,15.60
2011,10,19,16,25,15.60
2011,10,19,16,26,15.60
2011,10,19,16,27,15.60
2011,10,19,16,28,15.60
2011,10,19,16,29,15.60
2011,10,19,16,30,15.60
2011,10,19,16,31,15.60
2011,10,19,16,32,15.50
2011,10,19,16,33,15.50
2011,10,19,16,34,15.40
2011,10,19,16,35,15.40
2011,10,19,16,36,15.30
2011,10,19,16,37,15.30
2011,10,19,16,38,15.20
2011,10,19,16,39,15.10
2011,10,19,16,40,15.00
2011,10,19,16,41,15.00
2011,10,19,16,42,15.00
2011,10,19,16,43,15.00
2011,10,19,16,44,15.00
2011,10,19,16,45,15.00
2011,10,19,16,46,14.80
2011,10,19,16,47,14.80
2011,10,19,16,48,14.70
2011,10,19,16,49,14.70
2011,10,19,16,50,14.60
2011,10,19,16,51,14.60
2011,10,19,16,52,14.60
2011,10,19,16,53,14.50
2011,10,19,16,54,14.50
2011,10,19,16,55,14.40
2011,10,19,16,56,14.40
2011,10,19,16,57,14.40
2011,10,19,16,58,14.40
2011,10,19,16,59,14.40
2011,10,19,17,00,14.30
2011,10,19,17,01,14.30
2011,10,19,17,02,14.30
2011,10,19,17,03,14.30
2011,10,19,17,04,14.30
2011,10,19,17,05,14.30
2011,10,19,17,06,14.30
2011,10,19,17,07,14.30
2011,10,19,17,08,14.30
2011,10,19,17,09,14.20
2011,10,19,17,10,14.20
2011,10,19,17,11,14.20
2011,10,19,17,12,14.20
2011,10,19,17,13,14.20
2011,10,19,17,14,14.10
2011,10,19,17,15,14.10
2011,10,19,17,16,14.10
2011,10,19,17,17,14.10
2011,10,19,17,18,14.10
2011,10,19,17,19,14.10
2011,10,19,17,20,14.10
2011,10,19,17,21,14.10
2011,10,19,17,22,14.10
2011,10,19,17,23,14.10
2011,10,19,17,24,14.10
2011,10,19,17,25,14.10
2011,10,19,17,26,14.00
2011,10,19,17,27,14.00
2011,10,19,17,28,14.00
2011,10,19,17,29,14.00
2011,10,19,17,30,14.10
2011,10,19,17,31,14.10
2011,10,19,17,32,14.10
2011,10,19,17,33,14.10
2011,10,19,17,34,14.10
2011,10,19,17,35,14.00
2011,10,19,17,36,14.00
2011,10,19,17,37,14.00
2011,10,19,17,38,14.00
2011,10,19,17,39,13.90
2011,10,19,17,40,13.90
2011,10,19,17,41,13.90
2011,10,19,17,42,13.90
2011,10,19,17,43,13.90
2011,10,19,17,44,13.90